Weather History for Clarksville, TN

Change the Weather History Date:

Thursday, November 10, 2011

  Actual Average Record
Temperature  
Mean Temperature 40 °F -  
Max Temperature 52 °F - 80 °F (1949)
Min Temperature 28 °F - 18 °F (1973)
Degree Days  
Heating Degree Days 25    
Month to date heating degree days 123  
Since 1 July heating degree days 396  
Cooling Degree Days 0    
Month to date cooling degree days 0  
Moisture  
Dew Point 24 °F    
Average Humidity 64    
Maximum Humidity 100    
Minimum Humidity 28    
Precipitation  
Precipitation 0.00 in - 1.68 in (1984)
Month to date precipitation 0.45  
Sea Level Pressure  
Sea Level Pressure 30.18 in    
Wind  
Wind Speed 7 mph (WNW)    
Max Wind Speed 26 mph    
Max Gust Speed 33 mph    
Visibility 10 miles    
Events      
T = Trace of Precipitation, MM = Missing Value Source: NWS Daily Summary

Daily Weather History Graph

Daily Weather History Graph

Search for Another Location

Airport:

Trip Planner

Search our weather history database for the weather conditions in past years. The results will help you decide how hot, cold, wet, or windy it might be!

Date:

Astronomy

Nov. 10, 2011 Rise Set
Actual Time 6:22 AM CST 4:44 PM CST
Civil Twilight 5:54 AM CST 5:11 PM CST
Nautical Twilight 5:23 AM CST 5:42 PM CST
Astronomical Twilight 4:53 AM CST 6:13 PM CST
Moon 4:33 PM CST (11/10) 6:12 AM CST (11/10)
Length of Visible Light 11h 17m
Length of Day
10h 22m
Full, 100% of the Moon is Illuminated
Nov 10
Full
Nov 10
Full
Nov 18
Last Quarter
Nov 25
New
Dec 2
First Quarter

Hourly Weather History & Observations

Time (CST) Temp. Windchill Dew Point Humidity Pressure Visibility Wind Dir Wind Speed Gust Speed Precip Events Conditions
12:52 AM 37.0 °F - 33.1 °F 86% 30.19 in 10.0 mi Calm Calm - N/A   Clear
1:52 AM 34.0 °F - 32.0 °F 92% 30.19 in 10.0 mi Calm Calm - N/A   Clear
2:52 AM 33.1 °F - 32.0 °F 96% 30.19 in 10.0 mi Calm Calm - N/A   Clear
4:52 AM 32.0 °F - 30.0 °F 92% 30.19 in 10.0 mi Calm Calm - N/A   Clear
7:52 AM 39.0 °F 31.8 °F 34.0 °F 82% 30.21 in 10.0 mi WNW 11.5 mph - N/A   Clear
8:52 AM 44.1 °F 38.6 °F 34.0 °F 68% 30.21 in 10.0 mi WNW 10.4 mph - N/A   Clear
9:52 AM 46.9 °F - 33.1 °F 59% 30.20 in 10.0 mi WNW 9.2 mph - N/A   Clear
10:52 AM 50.0 °F - 21.9 °F 33% 30.19 in 10.0 mi WNW 12.7 mph 24.2 mph N/A   Clear
11:52 AM 51.1 °F - 19.0 °F 28% 30.16 in 10.0 mi WNW 17.3 mph 28.8 mph N/A   Clear
12:52 PM 52.0 °F - 19.9 °F 28% 30.13 in 10.0 mi WNW 16.1 mph 27.6 mph N/A   Clear
2:52 PM 51.1 °F - 19.9 °F 29% 30.14 in 10.0 mi NW 16.1 mph 23.0 mph N/A   Scattered Clouds
4:52 PM 45.0 °F 40.1 °F 18.0 °F 34% 30.17 in 10.0 mi NW 9.2 mph - N/A   Clear
5:52 PM 42.1 °F 38.4 °F 17.1 °F 37% 30.17 in 10.0 mi WNW 5.8 mph - N/A   Clear
6:52 PM 41.0 °F 38.0 °F 16.0 °F 36% 30.18 in 10.0 mi West 4.6 mph - N/A   Clear
7:52 PM 37.9 °F 35.5 °F 18.0 °F 45% 30.18 in 10.0 mi West 3.5 mph - N/A   Clear
8:52 PM 33.1 °F - 21.0 °F 61% 30.18 in 10.0 mi Calm Calm - N/A   Clear
9:52 PM 30.9 °F - 21.0 °F 67% 30.18 in 10.0 mi Calm Calm - N/A   Clear
10:52 PM 28.9 °F 25.2 °F 21.9 °F 75% 30.18 in 10.0 mi West 3.5 mph - N/A   Clear
11:52 PM 30.0 °F 24.1 °F 21.0 °F 69% 30.18 in 10.0 mi West 5.8 mph - N/A   Clear